First Post Launch TLE for Fox-1Cliff
![](https://secure.gravatar.com/avatar/900f734c10632692418d1b47311b6af5.jpg?s=120&d=mm&r=g)
3 Dec
2018
3 Dec
'18
2:58 p.m.
This the first post-launch TLE for Fox-1Cliff. Thanks to Alan, WA4SCA for generating this TLE from SpaceX data.
Fox-1Cliff Post-Launch 1 99995U 18095A 18337.80370529 .00000000 00000-0 00000-0 0 14 2 99995 97.7684 46.9569 0012665 260.4419 20.6997 14.94922885 15
Ray Hoad WA5QGD AMSAT-NA Orbital Elements Manager
2256
Age (days ago)
2256
Last active (days ago)
0 comments
1 participants
participants (1)
-
Ray Hoad